Location: Col di Favilla
(44.0500°N, 10.3000°E)
Time: 12:21:01
(UTC+00:00)

Daily predictions for brighter satellites

Satellite Brightness Start Highest point End
(mag) Time Altitude Azimuth Time Altitude Azimuth Time Altitude Azimuth
Cosmos 1842 Rocket 3.8 19:11:37 10° N 19:16:03 55° E 19:20:26 10° SSE
Cosmos 2278 4.2 19:11:09 10° NNW 19:16:36 46° ENE 19:22:03 10° SE
Resurs 1-3 3.7 19:13:28 10° SSE 19:17:48 63° ENE 19:22:09 10° N
Cosmos 1633 3.1 19:19:08 10° SSE 19:22:28 37° E 19:25:50 10° NNE
Cosmos 2360 Rocket 4.4 19:20:47 10° NNE 19:22:44 12° NE 19:24:42 10° ENE
Nadezhda 4 Rocket 4.2 19:25:04 10° SSE 19:30:58 51° E 19:36:59 10° NNE
Cosmos 1606 2.8 19:27:44 10° N 19:31:29 59° E 19:35:14 10° SSE
Cosmos 1242 Rocket 3.9 19:30:42 10° NNW 19:34:03 39° W 19:37:21 10° SSW
Landsat 7 4.1 19:32:33 10° SSE 19:37:10 52° ENE 19:41:48 10° N
SPOT 3 Rocket 3.9 19:33:51 10° SE 19:38:53 50° ENE 19:43:56 10° N
Cosmos 1825 4.0 19:36:17 10° SW 19:39:42 33° WNW 19:43:09 10° N
ISS -3.1 19:36:34 10° NW 19:39:53 49° NNE 19:42:58 11° E
IGS 5A 3.5 19:36:18 10° SSE 19:40:22 61° ENE 19:44:29 10° N
BREEZE-M DEB (TANK) 4.3 19:30:34 10° W 19:43:20 56° NNW 19:47:01 10° ENE
Cosmos 2058 3.9 19:40:24 10° SSW 19:44:27 50° WNW 19:48:34 10° N
MetOp-B 4.5 19:40:09 10° SE 19:45:19 50° ENE 19:50:29 10° N
Cosmos 1980 Rocket 2.2 19:39:40 10° NNW 19:45:20 88° WSW 19:50:59 10° SSE
Cosmos 2369 4.1 19:40:01 10° NNW 19:45:37 65° WSW 19:51:12 10° SSE
CZ-2C R/B 4.4 19:43:55 10° NNE 19:48:02 33° E 19:52:02 10° SSE
RESURS DK-1 3.0 19:46:05 10° SW 19:50:10 61° WNW 19:54:19 10° NNE
Cosmos 2221 3.1 19:46:10 10° NNW 19:50:25 59° W 19:54:40 10° S
ERBS 4.0 19:48:41 10° WNW 19:51:23 25° SW 19:54:05 10° S
USA 245 4.5 19:47:53 13° SE 19:52:04 39° ENE 19:56:03 10° N
BREEZE-M DEB (TANK) 3.1 19:50:48 10° SW 19:54:04 71° SE 20:04:49 10° ENE
Cosmos 2322 Rocket 3.4 19:51:03 10° N 19:55:52 28° NE 19:59:58 13° ESE
Cosmos 304 Rocket 4.2 19:55:56 10° N 20:00:35 48° ENE 20:03:55 18° SE
BREEZE-M DEB (TANK) 3.6 19:57:34 10° WNW 20:00:48 80° NNE 20:09:25 13° ESE
Cosmos 1538 Rocket 3.9 19:55:37 10° SSW 20:00:50 83° ESE 20:06:02 10° NNE
Cosmos 1933 3.8 19:58:02 10° N 20:01:56 45° ENE 20:04:32 19° SE
Resurs 01 Rocket 1.7 19:58:35 10° S 20:03:00 78° WSW 20:07:30 10° NNW
Cosmos 2151 2.9 20:01:00 10° S 20:05:11 66° E 20:09:26 10° NNE
ERS-2 2.9 20:02:39 10° N 20:06:14 53° WNW 20:09:46 10° SSW
Cosmos 2098 Rocket 2.7 20:03:31 10° SSW 20:06:32 64° W 20:10:05 10° N
Gbstr 26 Del rocket 3.4 20:06:21 10° NW 20:09:58 47° NNE 20:12:57 16° E
Meteor 2-3 Rocket 3.8 20:04:47 10° S 20:10:18 59° E 20:15:56 10° NNE
CARTOSAT-1 4.1 20:09:29 20° SE 20:12:05 44° ENE 20:16:12 10° N
Meteor 2-15 Rocket 4.5 20:07:23 10° N 20:13:26 66° E 20:18:11 17° SSE
Cosmos 2219 Rocket 4.4 20:14:32 10° NNE 20:16:47 12° NE 20:19:02 10° ENE
Ariane Rocket 4.2 20:12:44 10° SSW 20:17:29 40° W 20:22:15 10° NNW
SL-16 R/B 2.5 20:19:05 10° NNW 20:24:41 56° ENE 20:28:03 24° SE
Cosmos 1782 3.0 20:24:28 10° N 20:28:25 52° ENE 20:30:02 31° SE
ARIANE 5 R/B 2.9 20:26:52 26° SE 20:29:10 56° ENE 20:33:32 10° N
Cosmos 371 Rocket 4.0 20:24:33 10° NNW 20:29:12 50° WSW 20:32:51 16° S
Cosmos 1271 Rocket 2.7 20:31:00 10° N 20:35:00 87° E 20:36:56 30° S
SPOT 1/Viking Rocket 3.8 20:31:18 17° S 20:35:20 69° WSW 20:40:33 10° NNW
Cosmos 2195 Rocket 4.4 20:31:18 10° S 20:37:26 88° W 20:43:35 10° N
USA 276 2.3 20:34:29 10° WNW 20:37:38 63° NNE 20:38:32 40° E
BREEZE-M DEB (TANK) 2.8 20:35:22 10° WNW 20:38:37 76° SSW 20:43:14 23° SE
Cosmos 1766 Rocket 3.7 20:37:42 30° SSE 20:39:36 54° E 20:43:53 10° NNE
Cosmos 1151 Rocket 3.1 20:37:43 10° N 20:42:02 60° E 20:43:40 35° SE
ATLAS 5 CENTAUR R/B 4.4 20:39:57 10° N 20:43:07 16° NNE 20:46:35 10° ENE
Cosmos 1328 Rocket 3.9 20:41:56 10° N 20:46:17 50° ENE 20:47:39 36° SE
Cosmos 923 Rocket 4.0 20:41:52 10° SSW 20:47:12 88° WNW 20:52:36 10° NNE
Terra 2.1 20:47:56 33° SE 20:49:44 53° ENE 20:54:23 10° N
ATLAS 3B R/B 3.5 20:45:05 10° NW 20:51:52 47° WSW 20:56:42 20° S
SPOT 5 2.5 20:50:48 38° SSE 20:52:24 78° ENE 20:56:48 10° N
USA 267 3.6 20:48:44 10° ENE 20:54:45 38° SE 20:59:02 18° S
Cosmos 1092 Rocket 4.4 20:49:24 10° SSW 20:55:35 62° WNW 21:01:51 10° N
Cosmos 2082 Rocket 4.5 20:51:35 10° WSW 20:56:12 25° NW 21:00:53 10° N
NOSS 2-1 (C) 3.6 21:00:51 37° ENE 21:00:51 37° ENE 21:03:06 10° NE
Cosmos 2056 Rocket 3.8 20:54:57 10° NNW 21:00:15 56° ENE 21:02:09 36° SE
ERS-1 Rocket 2.9 21:00:35 34° S 21:02:48 84° WSW 21:07:51 10° NNW
BREEZE-M DEB (TANK) 3.8 21:01:09 10° WNW 21:02:54 22° N 21:03:12 21° N
SL-27 R/B 3.1 21:06:23 41° ENE 21:06:23 41° ENE 21:09:14 10° NNE
Meteor 2-21 4.4 21:02:38 28° S 21:06:03 75° E 21:12:12 10° NNE
NOSS 2-1 (D) 3.3 21:08:18 48° ENE 21:08:18 48° ENE 21:10:50 10° NE
Cosmos 2360 Rocket 2.5 21:02:30 10° NNW 21:08:03 56° ENE 21:10:08 36° ESE
Cosmos 2026 Rocket 4.4 21:02:18 10° SSW 21:08:33 61° W 21:14:47 10° N
GP-B 4.1 21:09:24 10° NNW 21:13:36 43° W 21:16:14 21° SW
Cosmos 1833 4.3 21:14:09 39° SSE 21:15:57 55° ESE 21:21:35 10° NNE
ISS -2.1 21:13:39 10° WNW 21:15:56 25° WSW 21:15:56 25° WSW
Spot 2 Rocket 4.4 21:14:48 24° SSW 21:17:30 43° W 21:22:23 10° NNW
Cosmos 2333 Rocket 3.2 21:13:21 10° N 21:18:32 35° NE 21:20:38 27° E
Meteor 1-10 Rocket 4.2 21:15:41 10° N 21:21:14 69° ENE 21:22:51 46° SE
Cosmos 1371 Rocket 4.0 21:16:21 10° NNW 21:21:46 87° WSW 21:23:22 47° SSE
Cosmos 2112 Rocket 4.2 21:17:49 17° SSW 21:21:52 69° WNW 21:27:09 10° NNE
Cosmos 1680 Rocket 4.0 21:17:27 11° SW 21:22:24 59° WNW 21:27:37 10° NNE
Cosmos 1500 Rocket 4.1 21:22:35 42° E 21:22:35 42° E 21:26:40 10° NNE
Cosmos 1812 2.7 21:18:49 10° NNW 21:22:40 71° W 21:23:03 64° SW
Cosmos 220 Rocket 4.1 21:20:48 10° NNW 21:25:07 67° WSW 21:25:50 56° SSW
Okean 3 Rocket 4.4 21:24:58 26° SW 21:27:11 49° WNW 21:31:35 10° N
USA 234 4.3 21:22:42 11° E 21:28:36 42° NNE 21:34:40 10° NW
Cosmos 292 Rocket 3.8 21:28:13 10° NNW 21:32:59 64° ENE 21:33:40 56° ESE
Meteor 2-16 Rocket 4.3 21:35:25 43° S 21:37:35 83° E 21:43:41 10° N
Cosmos 2237 Rocket 4.4 21:35:21 10° N 21:38:44 16° NE 21:42:07 10° E
Cosmos 2322 Rocket 2.7 21:34:45 10° NW 21:40:10 49° WSW 21:41:46 38° SSW
Cosmos 1408 Rocket 3.7 21:40:12 53° SW 21:41:01 66° W 21:45:20 10° N
Cosmos 1743 Rocket 3.5 21:42:22 68° E 21:42:22 68° E 21:46:47 10° NNE
IRIDIUM 106 4.4 21:42:34 10° N 21:47:44 58° E 21:48:18 55° ESE
Cosmos 2315 Rocket 4.1 21:44:25 10° N 21:50:43 64° E 21:52:17 49° SE
Sich 1 4.1 21:51:49 33° ENE 21:51:49 33° ENE 21:55:02 10° NNE
Cosmos 2084 4.4 21:48:52 17° WSW 21:51:40 43° NW 21:55:40 10° NNE
Cosmos 2266 Rocket 3.9 21:53:30 46° SSW 21:55:30 84° W 22:01:45 10° N
Gbstr 26 Del rocket 4.3 21:53:09 10° WNW 21:55:27 27° WSW 21:55:27 27° WSW
Cosmos 1048 Rocket 4.3 21:59:25 47° E 21:59:25 47° E 22:03:56 10° NNE
Cosmos 2219 Rocket 2.4 21:56:25 10° NNW 22:01:59 60° ENE 22:02:58 52° ESE
BREEZE-M DEB (TANK) 4.5 21:49:31 10° SW 22:05:41 61° SSE 22:10:24 10° ENE
Cosmos 2228 Rocket 3.1 22:01:54 10° N 22:06:05 76° NE 22:06:05 76° NE
Cosmos 1515 Rocket 4.4 22:02:13 10° NNW 22:06:22 40° W 22:06:43 39° WSW
H-2A R/B 4.4 22:02:32 10° N 22:06:30 42° WNW 22:07:15 38° W
SL-16 R/B 3.8 22:04:02 10° NW 22:08:20 23° W 22:09:55 20° SW
COSMOS 2455 2.7 22:09:10 58° SSW 22:10:24 81° ESE 22:16:27 10° NNE
NOSS 3-1 (C) 4.0 22:03:44 10° NW 22:11:21 88° ENE 22:14:30 44° SE
Cosmos 2333 4.0 22:05:56 10° NNW 22:11:33 82° WSW 22:12:13 69° S
Cosmos 1420 Rocket 4.4 22:08:00 10° NNW 22:13:10 52° WSW 22:13:43 50° SW
COSMOS 2428 2.8 22:11:03 10° NNW 22:16:44 65° ENE 22:17:35 57° ESE
Spot 4 3.7 22:21:45 85° ENE 22:21:45 85° ENE 22:26:34 10° NNW
USA 229 DEB 4.0 22:18:10 10° NW 22:25:31 72° NE 22:28:16 43° ESE
USA 229 4.0 22:18:15 10° NW 22:25:36 72° NE 22:28:23 43° ESE
Terra 3.8 22:26:49 17° WSW 22:27:48 18° W 22:31:01 10° NW
ATLAS 5 CENTAUR R/B 2.8 22:23:24 10° NNW 22:28:50 54° NE 22:30:39 41° E
COSMOS 2487 4.3 22:31:49 29° N 22:31:49 29° N 22:33:46 10° N
Cosmos 1452 Rocket 3.5 22:27:32 10° NNW 22:32:46 69° WSW 22:32:49 69° WSW
Cosmos 1707 Rocket 4.0 22:28:37 10° N 22:32:18 57° NNE 22:32:18 57° NNE
ALOS 2 3.0 22:33:57 58° NE 22:33:57 58° NE 22:37:47 10° N
USA 267 3.4 22:31:31 10° NE 22:38:01 70° NW 22:44:31 10° WSW
SL-08 ROCKET BODY 4.3 22:44:13 68° SE 22:44:47 73° E 22:50:55 10° NNE
NOSS 3-1 (A) 4.0 22:38:24 10° NW 22:46:02 89° NE 22:48:48 49° SE
Nadezhda 2 Rocket 4.5 22:49:09 62° SSW 22:50:14 79° W 22:56:40 10° N
Cosmos 2360 Rocket 3.7 22:47:21 10° NW 22:51:35 22° W 22:51:53 22° WSW
Meteor 1-20 Rocket 4.5 22:54:51 54° WSW 22:55:35 58° WNW 23:01:11 10° N
Cosmos 1110 Rocket 4.0 22:53:30 10° NNW 22:58:40 78° W 22:58:40 78° W
Cosmos 1980 4.0 22:55:01 10° NNW 23:00:36 57° ENE 23:01:19 53° E
Cosmos 2333 Rocket 3.0 22:57:38 10° NW 23:02:38 38° WSW 23:02:38 38° WSW
Cosmos 1331 Rocket 4.0 22:59:01 10° NNW 23:03:58 75° WNW 23:03:58 75° WNW
USA 234 3.1 23:10:02 61° SSE 23:11:17 81° SW 23:17:53 10° NW
Nimbus 7 Rocket 4.2 23:07:27 10° NNE 23:13:30 88° ESE 23:14:02 76° S
NOSS 0 Rocket 3.8 23:09:18 10° NNW 23:15:34 80° WSW 23:16:01 75° SSW
Cosmos 2297 Rocket 2.3 23:17:11 60° E 23:17:11 60° E 23:22:28 10° NNE
Okean 1-7 4.2 23:15:37 10° N 23:18:54 35° NE 23:18:54 35° NE
Lacrosse 5 2.6 23:21:59 45° ENE 23:21:59 45° ENE 23:25:37 10° NE
Cosmos 2237 Rocket 2.1 23:18:01 10° NNW 23:23:45 80° ENE 23:24:02 77° ESE
Cosmos 2084 Rocket 4.3 23:20:56 10° NNW 23:24:08 48° NNW 23:24:08 48° NNW
Cosmos 2242 Rocket 4.5 23:21:31 10° N 23:25:08 43° NE 23:25:08 43° NE
Meteor 1-18 Rocket 4.5 23:21:04 10° NNW 23:26:47 56° W 23:26:57 56° WSW
Cosmos 1470 Rocket 4.2 23:29:03 52° NNW 23:29:03 52° NNW 23:32:26 10° N
Cosmos 2227 Rocket 2.4 23:28:54 56° E 23:28:54 56° E 23:34:07 10° NNE
Cosmos 909 Rocket 4.2 23:31:44 57° SE 23:32:16 58° ESE 23:39:33 10° NE
Cosmos 1633 Rocket 4.2 23:33:06 36° WNW 23:33:06 36° WNW 23:36:36 10° N
Cosmos 1933 Rocket 4.1 23:35:34 57° NNE 23:35:34 57° NNE 23:39:11 10° N
Timation 1 Rocket 4.5 23:41:04 57° ESE 23:41:05 57° ESE 23:46:57 10° NE
Meteor 1-11 Rocket 3.9 23:41:19 56° E 23:41:24 56° E 23:46:48 10° NNE
Cosmos 2219 Rocket 3.9 23:41:25 10° NW 23:44:40 20° W 23:44:40 20° W
Cosmos 2263 Rocket 4.3 23:46:36 14° ESE 23:47:02 14° E 23:49:56 10° ENE
Cosmos 1269 Rocket 4.1 23:50:05 64° WNW 23:50:11 64° WNW 23:55:27 10° NNE
NOSS 2-2 (C) 4.4 23:45:16 10° NW 23:50:46 86° NE 23:52:22 56° SE
SL-16 R/B 2.9 23:45:34 10° NNW 23:51:03 48° ENE 23:52:42 37° ESE
Cosmos 1992 Rocket 4.3 23:46:30 10° NNW 23:51:41 60° ENE 23:52:06 58° E
PSLV R/B 4.0 23:47:50 10° N 23:52:12 67° NW 23:52:12 67° NW
Resurs 1-4 Rocket 3.7 23:50:35 10° NE 23:54:39 22° E 23:55:13 21° ESE
